CAPE
0 0 0 0 0 0 0 0 0 0 0 0 0 0 255 301 125 351 183 10 1602 1592 2256 2621 2794 2606 2373 2115 1832 1614 1617 1596 1369 1304 1305 1391 1440 1432 1296 1505 1690 1771 1566 975 838 758 473 322 268
0 0 0 0 0 0 0 0 0 0 0 0 0 0 0 493 943 738 122 1133 1352 1550 1688 2353 2783 2509 2351 2016 1715 1578 1725 1630 1293 1239 1311 1411 1305 1396 1333 1513 1597 1638 1059 872 667 531 434 319 315
0 0 0 0 0 0 0 0 0 0 0 0 0 0 0 970 639 23 12 1692 1524 1112 1357 2360 2716 2432 2260 1938 1680 1611 1745 1592 1315 1240 1322 1408 1302 1398 1266 1363 1422 1353 886 745 568 453 402 345 361
0 0 0 0 0 0 0 0 0 0 0 0 0 0 501 1166 803 532 1832 1816 1347 1256 1876 2469 2469 2304 2107 1890 1712 1719 1775 1620 1364 1235 1286 1445 1399 1440 1325 1306 1127 1137 816 633 463 502 550 391 286
0 0 0 0 0 0 0 0 0 0 0 0 0 0 1367 1220 1706 1986 1912 1621 1156 1563 1839 2264 2352 2227 2101 2011 1846 1797 1772 1539 1371 1266 1274 1428 1432 1492 1536 1429 1277 999 848 562 375 508 556 476 328
0 0 0 0 0 0 0 0 0 0 0 0 0 0 799 952 1579 1831 1859 1535 1228 1591 1665 1973 2321 2195 2053 1977 1896 1781 1645 1558 1453 1278 1233 1315 1367 1457 1599 1490 1302 1023 873 837 644 613 501 394 288
0 0 0 0 0 0 0 0 0 0 0 0 0 0 282 1000 874 1769 1798 1395 1720 1462 1355 1754 2003 1800 1701 1986 1863 1758 1586 1498 1376 1226 1184 1248 1277 1364 1510 1494 1409 1143 856 881 771 661 523 406 345
0 0 0 0 0 0 0 0 0 0 0 0 0 0 0 189 897 1376 1375 1341 1609 1120 1100 1614 1777 1453 1458 1877 1953 1775 1649 1545 1343 1283 1261 1226 1324 1391 1392 1062 1245 1208 882 880 832 629 499 409 343
0 0 0 0 0 0 0 0 0 0 0 0 0 0 0 461 855 1304 1274 1511 1734 1073 746 1017 1550 1549 1541 1610 1764 1771 1730 1567 1375 1356 1303 1064 759 849 1033 712 1126 1104 887 742 688 613 550 534 485
0 0 0 0 0 0 0 0 0 0 0 0 0 0 103 864 1019 1103 1360 1535 1616 916 484 429 826 1106 1042 1401 1319 1260 1347 1195 963 899 871 472 108 335 584 454 1188 1276 1079 857 722 621 602 596 58
0 0 0 0 0 0 0 0 0 0 0 0 0 0 0 72 182 1260 1275 1333 1623 818 471 229 154 48 145 818 786 880 817 676 526 588 475 110 42 303 262 213 899 897 1133 606 702 574 391 58 5
0 0 0 0 0 0 0 0 0 0 0 0 0 0 0 0 0 0 0 1614 1219 625 467 150 114 13 41 238 153 147 189 222 224 270 229 69 61 160 29 252 490 591 510 262 155 145 101 7 0
0 0 0 0 0 0 0 0 0 0 0 0 0 0 0 0 0 0 0 884 1344 1036 127 151 84 30 208 28 54 145 198 194 217 257 212 34 116 451 57 233 395 694 509 263 158 82 8 4 99
0 0 0 0 0 0 0 0 0 0 0 0 0 0 0 0 0 0 53 167 1642 1188 289 454 434 637 326 204 171 324 309 336 276 372 311 142 229 578 762 434 695 818 409 452 755 671 500 377 240
0 0 0 0 0 0 0 0 0 0 0 0 0 0 0 0 0 0 70 1891 1681 863 327 320 345 352 891 888 266 727 558 515 662 632 624 429 587 1480 1284 905 811 748 563 402 151 3 5 13 1
0 0 0 0 0 0 0 0 0 0 0 0 0 0 0 0 0 0 0 1721 1453 639 182 335 137 106 411 2068 1072 809 1625 925 1357 1115 1152 1305 1439 978 614 840 406 9 0 0 0 0 0 0 0
0 0 0 0 0 0 0 0 0 0 0 0 0 0 0 0 0 0 0 423 923 725 527 1184 876 842 1490 2673 2712 2272 2553 1618 1902 2137 1681 1803 2110 1198 1098 537 0 0 0 0 0 0 0 0 0
0 0 0 0 0 0 0 0 0 0 0 0 0 0 0 0 0 0 815 17 0 0 113 27 172 903 2105 2357 2283 2471 2850 2119 2287 2075 2071 2108 1782 1686 666 125 0 0 0 0 0 0 0 0 0
0 0 0 0 0 0 0 0 0 0 0 0 0 0 0 0 0 0 1859 534 149 300 9 95 559 88 182 2037 1913 1937 2091 2002 2235 2231 1981 1708 1737 1095 786 207 25 0 0 0 0 0 0 0 0
0 0 0 0 0 0 0 0 0 0 0 0 0 0 0 0 0 0 1482 1439 0 0 0 0 4 1 0 145 2370 2353 2209 1909 2293 2109 1831 1608 1067 419 369 184 0 0 0 0 0 0 0 0 0
0 0 0 0 0 0 0 0 0 0 0 0 0 0 0 0 0 0 945 1259 177 6 54 16 1 41 0 3 1868 2020 2223 2297 2256 1892 1578 1207 1023 705 110 0 0 0 0 0 0 0 0 0 2
0 0 0 0 0 0 0 0 0 0 0 0 0 0 0 0 0 0 0 814 17 0 0 0 0 53 1239 1977 2189 2372 2240 2290 2095 1576 1108 865 530 494 354 72 0 0 0 0 0 0 25 40 1
1 0 0 0 0 0 0 0 0 0 0 0 0 0 0 0 0 0 0 868 344 19 0 0 0 86 1810 1989 2454 2234 1958 1949 1434 577 177 52 80 258 232 0 0 4 3 27 27 30 7 0 0
0 3 6 0 0 0 0 0 0 0 0 0 0 0 0 0 0 0 0 556 366 36 0 0 1 422 1946 2104 2527 1953 1831 1476 567 134 43 0 0 0 0 3 0 30 34 43 21 2 0 0 0
9 0 3 10 0 0 0 0 0 0 0 0 0 0 0 0 0 0 0 706 2478 1843 117 217 796 2094 2339 2454 2255 1669 1379 951 354 93 0 0 0 0 0 0 0 0 0 0 0 0 0 0 0
75 20 8 50 0 0 0 0 0 0 0 0 0 0 0 0 0 0 0 247 2749 2428 2185 2100 1925 2222 1841 2099 1727 1148 495 200 21 0 0 0 0 0 0 0 0 0 0 0 0 0 0 0 0
72 9 4 11 1 0 0 0 0 0 0 0 0 0 0 0 0 0 0 3 2743 2432 1628 1559 1953 1495 1036 953 816 510 319 175 0 0 0 0 0 0 0 0 0 0 0 0 0 0 0 0 0
8 30 29 71 52 10 19 3 0 0 0 0 0 0 0 0 0 0 963 2084 1982 1302 1053 1174 1144 1016 923 628 222 157 8 0 0 0 0 0 0 0 0 0 0 0 0 0 0 0 0 0 0
15 7 65 11 24 88 13 23 2 0 0 0 0 0 0 39 1383 1360 1372 1378 1296 1048 884 640 385 256 74 4 0 0 0 0 0 0 0 0 0 0 0 0 0 0 0 0 0 0 0 0 0
0 0 0 26 0 20 13 0 6 25 0 0 15 131 363 1269 1115 980 960 1097 950 688 491 245 36 0 0 0 0 0 0 0 0 0 0 0 0 0 0 0 0 0 0 0 0 0 0 0 0
CIN
0 0 0 0 0 0 0 0 0 0 0 0 0 0 -140 -200 -248 -354 -344 -1006 -454 -461 -330 -273 -303 -297 -269 -255 -247 -244 -207 -180 -183 -161 -126 -93 -58 -35 -39 -4 0 0 0 -14 -25 -34 -81 -129 -141
0 0 0 0 0 0 0 0 0 0 0 0 0 0 0 -249 -363 -497 -853 -460 -599 -546 -418 -268 -265 -305 -286 -292 -286 -262 -206 -184 -214 -196 -152 -101 -101 -61 -62 -12 -1 0 -10 -24 -50 -69 -78 -98 -103
0 0 0 0 0 0 0 0 0 0 0 0 0 0 0 -206 -409 -199 -453 -426 -605 -574 -458 -261 -241 -291 -296 -312 -316 -283 -222 -206 -219 -206 -157 -107 -105 -68 -75 -43 -11 -5 -35 -42 -67 -93 -105 -110 -103
0 0 0 0 0 0 0 0 0 0 0 0 0 0 -98 -198 -355 -559 -348 -379 -465 -487 -394 -250 -254 -285 -320 -326 -313 -277 -228 -224 -220 -205 -160 -110 -91 -60 -64 -45 -49 -32 -68 -77 -97 -67 -54 -98 -127
0 0 0 0 0 0 0 0 0 0 0 0 0 0 -104 -132 -212 -326 -337 -376 -494 -503 -424 -304 -263 -292 -307 -306 -286 -253 -211 -215 -215 -202 -164 -110 -81 -50 -33 -32 -38 -49 -61 -113 -146 -96 -79 -85 -110
0 0 0 0 0 0 0 0 0 0 0 0 0 0 -97 -128 -162 -239 -311 -406 -459 -526 -460 -329 -253 -293 -305 -291 -267 -246 -234 -213 -196 -197 -164 -100 -79 -61 -35 -32 -33 -46 -58 -53 -81 -71 -92 -105 -129
0 0 0 0 0 0 0 0 0 0 0 0 0 0 -113 -120 -138 -183 -267 -345 -439 -467 -479 -356 -308 -334 -339 -272 -266 -242 -229 -210 -189 -181 -151 -106 -69 -57 -39 -27 -20 -26 -43 -33 -39 -55 -83 -121 -127
0 0 0 0 0 0 0 0 0 0 0 0 0 0 0 -130 -97 -95 -148 -271 -433 -487 -517 -399 -334 -365 -346 -246 -190 -179 -167 -165 -182 -158 -111 -75 -50 -35 -25 -39 -17 -10 -22 -25 -23 -44 -62 -89 -125
0 0 0 0 0 0 0 0 0 0 0 0 0 0 0 -110 -80 -57 -77 -156 -345 -446 -544 -475 -309 -291 -275 -221 -159 -136 -125 -122 -129 -102 -76 -99 -140 -77 -30 -59 -7 -1 -4 -10 -15 -40 -60 -63 -80
0 0 0 0 0 0 0 0 0 0 0 0 0 0 -90 -66 -68 -47 -47 -136 -300 -481 -526 -532 -418 -321 -313 -233 -268 -263 -201 -204 -220 -209 -179 -255 -378 -256 -126 -126 -17 -13 -23 -41 -53 -66 -73 -72 -249
0 0 0 0 0 0 0 0 0 0 0 0 0 0 0 -64 -80 -44 -44 -78 -185 -426 -432 -508 -542 -580 -501 -355 -376 -358 -352 -350 -352 -286 -291 -438 -435 -241 -218 -188 -48 -67 -52 -94 -101 -109 -132 -304 -170
0 0 0 0 0 0 0 0 0 0 0 0 0 0 0 0 0 0 0 -27 -189 -288 -407 -526 -515 -534 -534 -455 -500 -512 -498 -494 -463 -420 -412 -456 -419 -292 -350 -192 -138 -129 -145 -214 -225 -268 -292 -191 0
0 0 0 0 0 0 0 0 0 0 0 0 0 0 0 0 0 0 0 -211 -334 -276 -127 -368 -225 -376 -393 -448 -403 -399 -502 -496 -462 -406 -386 -451 -332 -180 -245 -213 -157 -138 -152 -214 -233 -302 -308 -109 -168
0 0 0 0 0 0 0 0 0 0 0 0 0 0 0 0 0 0 -186 -170 -213 -172 -304 -460 -140 -124 -264 -292 -378 -308 -372 -385 -384 -320 -328 -375 -271 -159 -59 -68 -76 -85 -137 -136 -63 -119 -137 -140 -191
0 0 0 0 0 0 0 0 0 0 0 0 0 0 0 0 0 0 -235 -226 -303 -303 -257 -279 -306 -450 -343 -125 -235 -204 -213 -239 -191 -202 -250 -226 -176 -75 -71 -119 -155 -149 -190 -215 -283 -27 -23 -361 -27
0 0 0 0 0 0 0 0 0 0 0 0 0 0 0 0 0 0 0 -374 -335 -308 -340 -219 -328 -455 -430 -82 -125 -132 -57 -105 -80 -146 -149 -124 -105 -178 -227 -158 -244 -419 0 0 0 0 0 0 0
0 0 0 0 0 0 0 0 0 0 0 0 0 0 0 0 0 0 0 -614 -422 -305 -266 -149 -202 -182 -111 -41 -46 -57 -51 -62 -74 -71 -89 -75 -68 -135 -166 -226 0 0 0 0 0 0 0 0 0
0 0 0 0 0 0 0 0 0 0 0 0 0 0 0 0 0 0 -249 -239 0 0 -479 -121 -372 -218 -110 -80 -51 -77 -67 -165 -139 -112 -112 -108 -105 -119 -251 -374 0 0 0 0 0 0 0 0 0
0 0 0 0 0 0 0 0 0 0 0 0 0 0 0 0 0 0 -303 -488 -607 -457 -157 -484 -380 -580 -473 -52 -53 -52 -61 -93 -125 -120 -104 -107 -122 -216 -217 -295 -330 0 0 0 0 0 0 0 0
0 0 0 0 0 0 0 0 0 0 0 0 0 0 0 0 0 0 -287 -241 0 0 0 0 -430 -78 0 -430 -14 -66 -66 -76 -97 -105 -126 -136 -185 -292 -255 -265 0 0 0 0 0 0 0 0 0
0 0 0 0 0 0 0 0 0 0 0 0 0 0 0 0 0 0 -165 -256 -603 -596 -740 -367 -92 -445 0 -24 -19 -93 -88 -73 -37 -75 -101 -122 -123 -144 -310 0 0 0 0 0 0 0 0 0 -14
0 0 0 0 0 0 0 0 0 0 0 0 0 0 0 0 0 0 0 -331 -610 -75 0 0 0 -353 -89 -34 -40 -33 -33 -23 -46 -66 -118 -145 -205 -213 -237 -311 -154 0 0 0 0 0 -127 -79 -31
-1 -1 0 0 0 0 0 0 0 0 0 0 0 0 0 0 0 0 0 -381 -544 -418 0 0 0 -232 -164 -105 -40 -61 -75 -66 -75 -248 -343 -407 -357 -256 -211 0 0 -305 -17 -280 -162 -132 -154 0 0
-6 -14 -16 0 0 0 0 0 0 0 0 0 0 0 0 0 0 0 0 -217 -510 -504 -69 0 -64 -485 -85 -11 -35 -58 -82 -109 -218 -331 -366 0 0 0 0 -141 0 -248 -223 -237 -304 -152 0 0 0
-29 0 -28 -8 -19 0 0 0 0 0 0 0 0 0 0 0 0 0 0 -229 -159 -234 -618 -593 -317 -44 -25 -35 -65 -79 -139 -181 -286 -329 0 0 0 0 0 0 0 0 0 0 0 0 0 0 0
-37 -56 -38 -1 0 0 0 0 0 0 0 0 0 0 0 0 0 0 0 -228 -135 -100 -71 -74 -70 -72 -85 -62 -52 -118 -244 -295 -421 0 0 0 0 0 0 0 0 0 0 0 0 0 0 0 0
-54 -13 -20 -57 -14 -49 0 0 0 0 0 0 0 0 0 0 0 0 0 -49 -92 -87 -155 -206 -140 -162 -215 -188 -164 -205 -267 -320 0 0 0 0 0 0 0 0 0 0 0 0 0 0 0 0 0
-46 -44 -10 -19 -2 -4 -32 -44 0 0 0 0 0 0 0 0 0 0 -368 -189 -111 -212 -239 -240 -211 -203 -160 -143 -236 -269 -256 0 0 0 0 0 0 0 0 0 0 0 0 0 0 0 0 0 0
-62 -8 -16 -23 -37 -6 -24 -58 -77 0 0 0 0 0 0 -234 -419 -359 -263 -210 -198 -191 -237 -280 -286 -287 -374 -154 0 0 0 0 0 0 0 0 0 0 0 0 0 0 0 0 0 0 0 0 0
0 0 -2 -11 0 -8 -60 0 -106 -169 0 0 -13 -120 -292 -447 -382 -351 -267 -209 -201 -226 -272 -328 -436 -30 0 0 0 0 0 0 0 0 0 0 0 0 0 0 0 0 0 0 0 0 0 0 0
Wind_Speed
6 6 2 3 2 2 7 11 12 21 17 6 5 9 10 8 10 8 15 23 21 15 8 11 20 22 21 20 19 18 18 17 17 17 17 16 14 15 13 12 11 11 11 10 9 9 8 8 9
4 5 3 4 4 5 8 12 21 22 16 4 8 6 8 7 6 2 8 21 23 18 9 8 17 21 21 20 19 17 18 18 18 18 18 17 16 16 14 13 12 11 11 10 9 8 7 7 7
2 5 1 5 5 13 7 10 18 20 10 3 2 4 6 9 12 10 5 19 21 16 11 9 16 19 21 21 20 19 19 18 18 18 17 17 16 15 14 14 12 11 11 9 8 8 8 7 6
3 3 5 2 11 10 18 17 24 21 21 3 5 5 9 12 19 14 23 22 19 16 13 13 15 19 21 21 20 20 18 19 18 17 17 16 15 13 13 12 11 11 11 10 9 7 6 6 5
2 3 4 6 14 10 14 19 24 20 15 9 5 3 9 11 26 29 25 19 19 16 13 11 16 18 20 20 21 20 19 18 18 17 16 16 15 13 12 11 11 10 9 10 9 8 7 5 4
3 4 2 12 15 11 18 21 20 17 15 12 2 6 8 19 24 21 22 20 18 16 14 12 16 19 19 20 20 19 19 18 17 16 16 15 14 14 12 11 9 9 9 8 8 7 6 4 3
7 3 7 9 11 11 19 18 18 17 11 10 2 7 11 20 21 23 21 20 17 16 14 12 11 15 21 19 19 17 17 16 15 14 13 13 12 12 11 10 9 8 7 7 7 6 5 5 3
2 3 9 11 15 19 17 6 16 19 15 12 10 5 8 11 22 22 21 20 19 17 15 12 11 14 14 11 17 16 15 14 13 13 12 11 11 10 10 9 8 7 7 7 6 5 4 3 3
6 5 13 20 20 15 12 6 9 7 14 3 2 4 1 21 20 19 18 19 17 15 16 13 10 9 9 9 11 13 15 13 12 11 11 9 4 5 6 6 8 8 7 6 5 5 5 6 6
9 12 23 15 11 11 14 12 15 2 3 2 4 5 11 22 18 18 19 21 20 20 18 14 12 10 10 9 12 8 10 6 5 6 7 4 6 7 9 9 12 11 10 9 8 7 7 6 3
5 25 15 9 19 21 21 21 13 11 4 6 8 5 8 6 10 17 17 21 24 23 16 17 12 9 11 9 6 5 5 4 4 6 5 6 4 4 3 3 4 4 9 4 6 5 4 5 5
14 19 19 15 17 16 11 8 12 7 8 12 12 7 7 8 9 9 8 11 11 16 17 16 18 11 6 8 4 5 5 6 5 5 7 5 3 5 5 4 5 5 4 6 5 3 4 6 7
25 13 13 20 23 26 19 18 15 19 9 3 9 7 9 8 9 9 8 14 23 19 12 12 7 13 10 10 6 6 7 8 7 7 8 5 5 5 5 5 6 6 4 3 1 4 4 1 3
8 14 21 21 22 24 24 15 9 21 8 4 5 5 1 8 9 6 5 6 16 18 17 20 13 10 12 10 11 8 7 9 8 8 9 10 6 5 5 5 5 4 2 5 4 5 7 4 4
16 20 19 24 25 22 11 21 30 10 8 7 6 8 7 6 6 7 2 14 18 16 17 20 10 15 11 3 6 6 7 6 7 9 11 11 7 5 5 5 5 4 4 7 6 6 5 4 4
9 11 20 25 20 15 12 30 21 11 8 10 9 8 8 10 10 6 5 17 20 20 18 12 10 9 13 10 7 5 7 9 7 9 9 10 8 10 7 6 5 4 4 4 4 4 5 4 4
9 20 23 17 12 16 18 31 12 10 15 11 9 10 10 10 10 8 7 20 22 22 21 19 18 15 13 9 5 5 5 7 4 7 9 10 6 7 8 7 4 4 4 4 3 3 3 3 2
22 22 16 17 13 12 17 24 17 15 17 17 15 11 11 11 12 7 12 19 17 16 18 14 4 7 9 5 3 1 4 4 3 4 4 5 6 8 7 7 6 4 3 4 4 4 4 2 2
17 13 15 18 16 11 16 27 21 15 15 12 18 17 15 17 8 10 17 22 17 13 11 13 10 6 5 2 7 5 4 3 4 4 7 6 6 7 9 4 5 3 4 3 4 3 4 3 3
22 22 23 18 14 17 23 24 15 15 21 18 11 21 18 19 11 9 20 22 18 21 17 15 11 11 4 5 6 3 4 2 4 4 5 7 9 8 6 6 5 5 4 5 2 2 2 1 1
24 23 23 23 20 21 17 18 24 14 19 20 18 12 20 22 17 11 20 21 19 19 19 14 14 15 20 27 12 3 4 5 4 4 5 4 7 9 7 7 5 6 5 3 3 3 4 2 1
23 19 20 20 21 20 17 14 16 22 17 20 21 11 22 21 16 16 17 23 23 20 13 18 17 16 11 11 9 8 6 7 3 4 4 3 7 8 9 8 8 6 4 5 3 3 3 3 2
20 20 23 22 19 16 29 7 13 16 21 19 20 16 12 19 19 16 14 27 24 20 16 12 12 14 11 9 10 9 9 6 6 6 7 5 5 5 5 6 7 7 5 6 6 3 5 3 3
16 12 19 17 12 18 22 16 15 16 21 19 20 17 13 9 15 17 14 19 25 20 19 13 10 6 12 17 13 13 15 13 10 8 7 4 3 4 5 6 6 5 5 5 7 5 5 3 3
11 10 1 6 14 12 20 18 17 15 17 23 24 17 11 11 11 17 19 20 22 22 24 17 18 17 13 12 11 16 15 15 13 11 9 7 3 3 5 5 5 4 6 6 6 4 4 2 2
11 13 7 7 11 15 19 17 12 25 24 7 16 14 11 14 12 17 18 23 23 24 24 20 16 11 10 9 14 12 14 8 8 8 6 5 4 4 4 6 6 6 6 5 4 2 1 3 2
4 21 15 13 15 6 12 14 9 21 23 20 11 16 18 10 10 12 18 20 23 22 20 19 18 16 14 14 13 13 13 12 10 10 8 6 5 5 5 6 6 6 6 7 6 5 3 3 2
16 8 9 4 6 11 8 7 15 15 22 20 15 11 13 15 11 16 18 22 21 23 20 18 18 18 17 14 12 10 12 12 11 9 9 7 5 6 7 7 6 6 6 7 6 4 4 5 4
4 7 8 4 6 4 4 11 11 10 16 20 17 12 18 15 22 20 19 21 22 22 21 19 19 20 17 15 14 14 11 11 11 10 8 7 7 7 6 6 7 7 7 6 5 7 7 7 6
7 10 7 6 6 6 6 12 7 10 18 12 12 11 20 26 24 23 21 22 21 22 19 19 19 19 17 15 14 13 12 11 11 10 8 8 7 6 7 7 6 8 11 13 11 9 8 8 8
Wind_Direction
278 254 200 303 48 158 241 248 258 280 286 282 88 84 124 108 151 204 202 216 141 140 152 159 141 136 135 135 136 136 134 131 128 126 123 122 117 112 111 112 111 116 121 120 113 107 102 98 96
284 282 203 275 153 233 249 243 257 260 262 339 41 33 47 71 84 101 120 169 136 138 149 167 145 138 137 137 137 138 137 136 136 135 133 134 132 128 128 127 126 127 132 130 124 117 110 103 101
253 240 131 164 214 225 248 245 255 267 300 209 87 72 85 119 107 141 246 129 119 135 137 162 147 141 140 141 141 143 143 142 142 141 141 142 140 137 137 136 135 137 140 136 130 125 121 120 117
260 320 314 205 245 234 242 265 269 289 300 317 123 71 74 140 148 158 130 134 135 136 135 155 150 146 144 145 147 147 149 148 146 145 146 145 144 141 140 139 142 144 145 141 135 124 121 128 135
245 270 220 230 250 253 262 247 261 274 282 267 137 143 98 127 127 133 138 140 139 131 142 151 156 150 148 150 151 151 152 152 149 149 150 149 149 144 143 143 143 143 142 141 140 136 137 137 140
283 155 242 227 251 243 245 256 261 273 284 287 79 126 113 133 129 141 138 139 148 138 144 155 161 153 152 153 154 155 153 152 151 150 152 154 153 150 146 147 147 144 143 141 139 137 139 140 155
223 246 223 250 258 259 246 248 252 252 258 262 178 132 153 146 150 145 144 143 135 141 144 158 160 158 162 155 154 152 150 149 147 148 152 152 151 148 142 142 144 143 140 135 137 142 148 155 170
248 227 251 238 242 253 256 253 240 254 243 234 177 166 167 163 151 144 146 145 145 146 148 153 157 161 161 153 150 147 145 145 145 147 149 147 145 142 142 144 142 138 142 145 149 153 159 174 205
249 235 240 238 238 241 287 280 274 233 233 120 83 99 177 146 145 148 152 143 148 153 157 154 151 147 141 137 147 137 141 140 139 142 143 137 126 135 140 161 160 156 156 160 164 169 183 196 215
198 218 231 232 249 257 266 272 275 254 167 132 71 52 106 136 148 158 164 158 161 162 153 148 151 152 144 148 150 137 148 137 135 138 146 162 169 169 173 185 171 173 173 176 185 191 198 207 228
241 233 240 244 237 260 267 279 289 307 256 180 164 179 177 153 157 170 178 172 174 155 148 152 147 155 156 135 149 144 136 131 143 155 167 178 191 194 175 149 176 179 187 187 195 200 198 206 209
246 244 247 259 270 273 268 300 298 310 239 204 175 167 211 160 184 205 190 196 87 145 145 146 150 156 132 131 141 143 144 145 162 171 175 182 177 187 174 161 177 189 195 209 192 199 194 220 223
228 240 243 239 250 263 271 269 273 278 276 230 168 172 211 201 200 211 227 134 137 139 157 123 192 141 126 135 154 169 167 160 179 165 184 186 191 197 179 170 179 201 191 204 146 199 190 324 73
271 243 238 240 242 240 252 264 255 264 267 253 248 200 220 175 176 203 193 122 149 137 152 135 171 91 148 172 169 173 172 177 176 176 187 192 185 193 194 175 171 212 178 145 97 71 88 86 78
250 256 267 254 240 247 232 251 242 251 271 217 249 231 189 196 199 203 172 94 122 126 126 128 154 149 141 250 184 169 177 185 184 182 182 196 189 185 119 85 96 105 69 104 111 95 88 96 67
284 264 246 247 244 244 210 248 242 241 245 233 227 238 195 212 216 224 146 120 124 130 126 143 153 191 157 172 172 216 175 194 175 182 186 199 189 130 113 104 90 100 104 95 97 108 89 75 63
248 243 238 248 229 229 219 244 228 212 221 232 227 218 216 216 220 196 138 139 137 140 144 157 155 197 184 147 171 159 136 179 139 159 180 195 145 122 115 113 103 102 92 85 112 81 97 89 86
226 234 244 250 232 227 240 259 243 200 211 220 217 213 210 224 209 179 112 135 141 153 158 129 117 183 172 137 109 47 108 104 104 116 139 124 115 111 107 108 133 128 100 100 70 85 53 99 80
271 248 252 242 248 254 232 244 243 212 214 223 211 211 212 221 196 166 126 131 129 149 140 139 123 86 29 186 181 211 133 111 87 86 99 103 96 91 111 103 105 103 95 97 92 81 67 31 16
261 263 271 275 266 232 244 251 250 217 212 221 211 208 208 217 202 164 134 146 154 162 156 170 157 133 104 314 224 178 134 168 110 99 83 91 97 98 92 106 94 92 105 90 66 90 80 69 197
252 242 252 259 275 281 273 263 249 230 217 210 223 201 208 208 201 172 143 144 159 163 162 163 173 164 168 210 210 156 98 83 88 90 97 96 101 117 122 118 127 134 114 160 149 124 104 95 316
253 259 263 255 244 255 256 261 264 227 223 210 209 196 211 206 195 186 142 151 160 169 168 157 171 179 182 185 173 171 146 144 124 125 115 133 140 133 145 154 150 138 127 149 147 176 109 105 95
268 266 254 262 265 260 256 247 266 239 213 205 196 211 196 209 198 183 153 155 170 165 175 157 161 168 156 155 167 133 130 120 126 108 111 116 86 130 154 149 142 120 147 127 112 88 81 72 102
283 301 274 274 266 255 247 229 247 252 211 198 196 211 211 199 195 184 155 149 158 166 153 152 152 190 186 175 165 148 145 140 137 143 131 121 118 91 78 74 75 98 97 88 106 82 98 106 101
240 219 279 255 235 238 238 244 226 234 249 194 198 207 205 197 178 173 151 140 152 157 163 167 181 179 163 145 132 149 143 147 148 147 144 138 105 70 77 79 84 87 88 88 90 103 109 117 120
241 213 185 239 224 241 239 233 217 232 249 253 184 200 189 195 174 169 149 139 145 146 152 152 139 129 107 106 127 125 129 132 128 120 114 96 90 101 110 111 116 112 121 112 84 57 124 155 167
275 252 222 216 256 302 246 244 268 232 242 251 216 201 199 189 151 138 139 138 136 133 124 126 118 109 103 106 114 119 118 112 112 104 99 99 109 126 111 105 96 86 84 76 59 44 22 80 58
230 267 228 156 222 229 236 267 228 257 230 234 237 199 186 171 124 119 119 121 123 122 122 115 114 112 109 105 108 113 112 115 109 107 110 121 121 102 101 90 87 83 83 79 55 37 9 28 14
315 232 240 314 173 217 246 236 244 261 282 233 238 225 179 122 113 115 117 119 119 117 118 118 114 113 105 103 104 102 102 98 98 101 106 112 105 106 103 93 77 70 74 75 53 37 41 40 26
273 267 262 230 255 218 154 249 297 323 326 289 231 245 128 120 118 120 120 119 116 115 117 119 117 110 108 107 108 106 106 108 105 106 104 101 99 85 95 87 79 55 52 59 55 47 30 27 14